Date String (YYYY-MM-DD hh:mm:ss) UTC,Instrument flags,absolute air pressure of the measurement (hPa),sample flow rate (lpm),inlet stack bypass flow (lpm),air temperature of the measurement (°C),ambient temperature measured by the external sensor (°C),aerosol sample conditioner tube jacket temperature (°C),OPC LED temperature (°C),internal box temperature (°C),relative humidity of the measurement (%),span deviation,mass concentration of particles derived from Lorenz-Mie calculation of OPC scattering (μg/m³),mass concentration of particles derived from Lorenz-Mie calculation of OPC scattering (μg/m³),mass concentration of particles derived from Lorenz-Mie calculation of OPC scattering (μg/m³)
DateTimeUTC,F1_M11,P_M11,Q1_M11,Q2_M11,T1_M11,T2_M11,T3_M11,T4_M11,T5_M11,U1_M11,ZSPAN_M11,X0_M11,X2_M11,X1_M11
2024-03-27 12:00:00,SystemResetWarning,0825.1,5.00,000.00,018.3,017.7,000.0,027.2,020.3,15.8,0000.0,0006.86,0003.93,0003.52
2024-03-27 12:01:00,SystemResetWarning,0825.1,5.00,000.00,018.6,018.7,000.0,027.2,020.9,15.4,0000.0,0007.12,0004.00,0003.59
2024-03-27 12:02:00,SystemResetWarning,0825.1,4.99,000.00,018.8,019.0,000.0,027.2,021.0,15.2,0000.0,0007.77,0004.07,0003.65
2024-03-27 12:03:00,SystemResetWarning,0825.1,4.99,000.00,018.8,018.8,000.0,027.2,020.8,15.2,0000.0,0007.98,0004.15,0003.72
2024-03-27 12:04:00,SystemResetWarning,0825.1,5.01,000.00,018.7,018.5,000.0,027.2,020.6,15.3,0000.0,0008.07,0004.23,0003.80
2024-03-27 12:05:00,SystemResetWarning,0825.1,5.01,000.00,018.7,018.4,000.0,027.2,020.5,15.4,0000.0,0008.08,0004.32,0003.88
2024-03-27 12:06:00,SystemResetWarning,0825.1,5.00,000.00,018.7,018.2,000.0,027.1,020.4,15.5,0000.0,0008.19,0004.40,0003.93
2024-03-27 12:07:00,SystemResetWarning,0825.1,5.00,000.00,018.6,018.1,000.0,027.1,020.3,15.6,0000.0,0008.16,0004.37,0003.93
2024-03-27 12:08:00,SystemResetWarning,0825.1,4.99,000.00,018.6,017.9,000.0,027.1,020.3,15.5,0000.0,0008.10,0004.35,0003.91
2024-03-27 12:09:00,SystemResetWarning,0825.1,5.00,000.00,018.6,017.8,000.0,027.1,020.2,15.3,0000.0,0008.17,0004.33,0003.88
2024-03-27 12:10:00,SystemResetWarning,0825.1,5.01,000.00,018.5,017.7,000.0,027.1,020.2,15.2,0000.0,0007.96,0004.28,0003.85
2024-03-27 12:11:00,SystemResetWarning,0825.2,5.01,000.00,018.5,017.6,000.0,027.1,020.1,15.2,0000.0,0007.66,0004.23,0003.81
2024-03-27 12:12:00,SystemResetWarning,0825.2,5.00,000.00,018.4,017.6,000.0,027.1,020.0,15.2,0000.0,0007.59,0004.22,0003.79
2024-03-27 12:13:00,SystemResetWarning,0825.2,5.00,000.00,018.4,017.4,000.0,027.1,020.0,15.4,0000.0,0006.91,0004.19,0003.76
2024-03-27 12:14:00,SystemResetWarning,0825.2,4.99,000.00,018.4,017.3,000.0,027.1,020.0,15.3,0000.0,0006.95,0004.11,0003.70
2024-03-27 12:15:00,SystemResetWarning,0825.2,4.99,000.00,018.3,017.3,000.0,027.1,020.0,15.3,0000.0,0007.28,0004.04,0003.63
2024-03-27 12:16:00,SystemResetWarning,0825.2,5.00,000.00,018.3,017.2,000.0,027.1,020.0,15.3,0000.0,0007.19,0003.98,0003.55
2024-03-27 12:17:00,SystemResetWarning,0825.2,5.00,000.00,018.3,017.2,000.0,027.1,020.0,15.4,0000.0,0006.97,0003.89,0003.47
2024-03-27 12:18:00,SystemResetWarning,0825.2,5.01,000.00,018.3,017.2,000.0,027.1,020.1,15.5,0000.0,0006.80,0003.81,0003.40
2024-03-27 12:19:00,SystemResetWarning,0825.2,5.01,000.00,018.4,018.0,000.0,027.2,020.5,15.4,0000.0,0006.72,0003.72,0003.32
2024-03-27 12:20:00,SystemResetWarning,0825.2,5.00,000.00,018.6,018.9,000.0,027.3,021.0,15.2,0000.0,0007.49,0003.66,0003.28
2024-03-27 12:21:00,SystemResetWarning,0825.3,4.98,000.00,018.8,018.9,000.0,027.2,021.0,15.1,0000.0,0007.62,0003.60,0003.25
2024-03-27 12:22:00,SystemResetWarning,0825.3,5.00,000.00,018.8,018.7,000.0,027.2,020.8,15.1,0000.0,0007.63,0003.60,0003.24
2024-03-27 12:23:00,SystemResetWarning,0825.2,5.01,000.00,018.7,018.5,000.0,027.2,020.6,15.2,0000.0,0007.65,0003.63,0003.26
2024-03-27 12:24:00,SystemResetWarning,0825.2,5.00,000.00,018.7,018.4,000.0,027.2,020.5,15.1,0000.0,0007.81,0003.67,0003.27
2024-03-27 12:25:00,SystemResetWarning,0825.2,5.01,000.00,018.7,018.2,000.0,027.2,020.4,15.2,0000.0,0007.63,0003.71,0003.32
2024-03-27 12:26:00,SystemResetWarning,0825.3,5.00,000.00,018.6,018.1,000.0,027.2,020.3,15.2,0000.0,0007.37,0003.74,0003.38
2024-03-27 12:27:00,SystemResetWarning,0825.3,5.01,000.00,018.6,017.9,000.0,027.1,020.2,15.1,0000.0,0007.36,0003.76,0003.42
2024-03-27 12:28:00,SystemResetWarning,0825.3,4.99,000.00,018.5,017.7,000.0,027.1,020.1,15.4,0000.0,0007.39,0003.79,0003.46
2024-03-27 12:29:00,SystemResetWarning,0825.3,4.99,000.00,018.5,017.6,000.0,027.1,020.0,15.8,0000.0,0007.51,0003.84,0003.49
2024-03-27 12:30:00,SystemResetWarning,0825.3,5.00,000.00,018.4,017.4,000.0,027.1,020.0,16.1,0000.0,0007.56,0003.90,0003.55
2024-03-27 12:31:00,SystemResetWarning,0825.3,5.00,000.00,018.4,017.3,000.0,027.1,020.0,16.4,0000.0,0006.88,0004.01,0003.64
2024-03-27 12:32:00,SystemResetWarning,0825.3,5.01,000.00,018.4,017.3,000.0,027.1,020.0,16.5,0000.0,0006.90,0004.14,0003.74
2024-03-27 12:33:00,SystemResetWarning,0825.2,5.00,000.00,018.3,017.2,000.0,027.1,020.0,16.4,0000.0,0007.18,0004.24,0003.82
2024-03-27 12:34:00,SystemResetWarning,0825.2,5.00,000.00,018.3,017.1,000.0,027.1,020.0,16.3,0000.0,0007.51,0004.31,0003.86
2024-03-27 12:35:00,SystemResetWarning,0825.3,5.00,000.00,018.3,017.1,000.0,027.2,020.1,16.1,0000.0,0007.36,0004.30,0003.88
2024-03-27 12:36:00,SystemResetWarning,0825.3,5.02,000.00,018.4,017.9,000.0,027.2,020.5,15.9,0000.0,0007.42,0004.31,0003.88
2024-03-27 12:37:00,SystemResetWarning,0825.3,4.99,000.00,018.7,018.9,000.0,027.3,021.0,15.8,0000.0,0007.46,0004.32,0003.90
2024-03-27 12:38:00,SystemResetWarning,0825.4,4.99,000.00,018.8,019.0,000.0,027.2,021.0,15.8,0000.0,0007.49,0004.36,0003.95
2024-03-27 12:39:00,SystemResetWarning,0825.4,5.00,000.00,018.8,018.7,000.0,027.2,020.7,15.9,0000.0,0007.58,0004.41,0003.98
2024-03-27 12:40:00,SystemResetWarning,0825.3,5.00,000.00,018.7,018.4,000.0,027.2,020.5,16.0,0000.0,0007.56,0004.43,0004.01
2024-03-27 12:41:00,SystemResetWarning,0825.2,5.01,000.00,018.7,018.1,000.0,027.2,020.3,16.0,0000.0,0007.50,0004.43,0004.01
2024-03-27 12:42:00,SystemResetWarning,0825.2,5.00,000.00,018.6,017.8,000.0,027.2,020.1,16.1,0000.0,0007.40,0004.41,0003.99
2024-03-27 12:43:00,SystemResetWarning,0825.3,5.00,000.00,018.5,017.5,000.0,027.1,020.0,16.2,0000.0,0007.36,0004.36,0003.95
2024-03-27 12:44:00,SystemResetWarning,0825.3,5.00,000.00,018.4,017.2,000.0,027.2,020.0,16.1,0000.0,0007.20,0004.29,0003.90
2024-03-27 12:45:00,SystemResetWarning,0825.3,5.01,000.00,018.4,017.1,000.0,027.2,020.0,16.2,0000.0,0006.79,0004.22,0003.87
2024-03-27 12:46:00,SystemResetWarning,0825.2,5.00,000.00,018.3,017.0,000.0,027.2,020.0,16.3,0000.0,0006.69,0004.22,0003.87
2024-03-27 12:47:00,SystemResetWarning,0825.3,5.00,000.00,018.3,017.2,000.0,027.2,020.1,16.3,0000.0,0006.69,0004.23,0003.88
2024-03-27 12:48:00,SystemResetWarning,0825.4,5.00,000.00,018.5,018.2,000.0,027.3,020.7,16.2,0000.0,0006.71,0004.24,0003.88
2024-03-27 12:49:00,SystemResetWarning,0825.4,5.00,000.00,018.8,019.0,000.0,027.3,021.1,16.0,0000.0,0006.74,0004.23,0003.86
2024-03-27 12:50:00,SystemResetWarning,0825.3,5.00,000.00,018.8,018.8,000.0,027.3,020.9,16.1,0000.0,0006.73,0004.22,0003.84
2024-03-27 12:51:00,SystemResetWarning,0825.3,4.98,000.00,018.8,018.6,000.0,027.3,020.7,16.2,0000.0,0006.69,0004.21,0003.83
2024-03-27 12:52:00,SystemResetWarning,0825.3,5.01,000.00,018.8,018.4,000.0,027.2,020.5,16.3,0000.0,0006.72,0004.21,0003.83
2024-03-27 12:53:00,SystemResetWarning,0825.3,5.00,000.00,018.7,018.2,000.0,027.2,020.4,16.4,0000.0,0006.61,0004.22,0003.84
2024-03-27 12:54:00,SystemResetWarning,0825.4,5.00,000.00,018.6,017.9,000.0,027.2,020.2,16.5,0000.0,0006.60,0004.24,0003.87
2024-03-27 12:55:00,SystemResetWarning,0825.4,5.00,000.00,018.5,017.6,000.0,027.2,020.1,16.5,0000.0,0006.74,0004.28,0003.91
2024-03-27 12:56:00,SystemResetWarning,0825.4,5.00,000.00,018.5,017.5,000.0,027.2,020.0,16.5,0000.0,0006.77,0004.29,0003.93
2024-03-27 12:57:00,SystemResetWarning,0825.4,5.00,000.00,018.4,017.3,000.0,027.2,020.0,16.2,0000.0,0006.70,0004.26,0003.92
2024-03-27 12:58:00,SystemResetWarning,0825.4,5.00,000.00,018.4,017.2,000.0,027.2,020.0,16.2,0000.0,0006.65,0004.25,0003.91
2024-03-27 12:59:00,SystemResetWarning,0825.4,5.00,000.00,018.3,017.2,000.0,027.2,020.0,16.2,0000.0,0006.66,0004.24,0003.90
